Air Resources Laboratory banner image
Air Resources Laboratory web site National Oceanic and Atmospheric Administration (NOAA)

wv roundup


Office: RLX

ASUS41 KRLX 170410
RWRRLX
Regional Weather Roundup
National Weather Service Charleston WV
1200 AM EDT WED AUG 17 2022

Note: "fair" indicates few or no clouds below 12,000 feet with no
significant weather and/or obstructions to visibility.

WVZ003-170500-
Northern Panhandle of West Virginia

CITY           SKY/WX    TMP DP  RH WIND       PRES   REMARKS
WHEELING       PTCLDY    66  57  72 E9        30.05R
$$

WVZ009-170500-
Northwest West Virginia

CITY           SKY/WX    TMP DP  RH WIND       PRES   REMARKS
PARKERSBURG    PTCLDY    62  61  96 CALM      30.03R
$$

WVZ006-170500-
Western West Virginia

CITY           SKY/WX    TMP DP  RH WIND       PRES   REMARKS
HUNTINGTON     CLEAR     67  63  87 N5        30.00S
POINT PLEASANT MOCLDY    64  64 100 CALM      30.03S
$$

WVZ015-170500-
West Central West Virginia

CITY           SKY/WX    TMP DP  RH WIND       PRES   REMARKS
CHARLESTON     PTCLDY    65  65 100 CALM      30.01R
$$

WVZ509-031-039-170500-
North Central West Virginia

CITY           SKY/WX    TMP DP  RH WIND       PRES   REMARKS
MORGANTOWN     MOCLDY    63  60  90 CALM      30.06R
CLARKSBURG     NOT AVBL
BUCKHANNON     CLOUDY    63  63 100 CALM      30.06R
$$

WVZ515-516-025-034-042-507-170500-
Southern West Virginia

CITY           SKY/WX    TMP DP  RH WIND       PRES   REMARKS
BECKLEY        CLEAR     59  57  93 CALM      30.07S
LOGAN          FAIR      64  64 100 MISG      30.02S
PINEVILLE      NOT AVBL
BLUEFIELD      CLOUDY    59  58  96 CALM      30.08F
LEWISBURG      CLOUDY    60  58  92 N6        30.09S
$$

WVZ525-526-170500-
Northern Mountains of West Virginia

CITY           SKY/WX    TMP DP  RH WIND       PRES   REMARKS
ELKINS         MOCLDY    60  57  89 CALM      30.07R
$$

WVZ502-504-052-170500-
Eastern Panhandle of West Virginia

CITY           SKY/WX    TMP DP  RH WIND       PRES   REMARKS
PETERSBURG     MOCLDY    63  63 100 CALM      30.05R
CUMBERLAND     PTCLDY    65  59  80 N6        30.08R
MARTINSBURG    PTCLDY    61  58  90 CALM      30.02R
$$

OHZ075-083-KYZ101-170500-
Southeast Ohio/Northeast Kentucky

CITY           SKY/WX    TMP DP  RH WIND       PRES   REMARKS
ATHENS         CLOUDY    64  64 100 CALM      30.02S
JACKSON        NOT AVBL
ASHLAND        CLEAR     66  66 100 CALM      30.01S
$$